Weather History for K1M4 - August, 2013

Change the Weather History Date:

Friday, August 9, 2013

  Actual Average (KMSL) Record (KMSL)
Temperature  
Mean Temperature 80 °F 80 °F  
Max Temperature 87 °F 91 °F 103 °F (1930)
Min Temperature 72 °F 70 °F 54 °F (1989)
Degree Days  
Heating Degree Days 0 0  
Month to date heating degree days 0  
Since 1 June heating degree days 1  
Since 1 July heating degree days 0  
Cooling Degree Days 14 15  
Month to date cooling degree days 142  
Year to date cooling degree days 1225  
Since 1 June cooling degree days 981  
Growing Degree Days 30 (Base 50)    
Moisture  
Dew Point 74 °F    
Average Humidity 91    
Maximum Humidity 100    
Minimum Humidity 66    
Precipitation  
Precipitation 1.01 in 0.10 in 2.04 in (2013)
Month to date precipitation 0.94  
Year to date precipitation 33.50  
Snow  
Snow 0.00 in - - ()
Month to date snowfall  
Since 1 June snowfall  
Since 1 July snowfall  
Snow Depth -    
Sea Level Pressure  
Sea Level Pressure 30.09 in    
Wind  
Wind Speed 5 mph (South)    
Max Wind Speed 9 mph    
Max Gust Speed 16 mph    
Visibility 7 miles    
Events Fog , Rain , Thunderstorm    
T = Trace of Precipitation, MM = Missing Value Source: NWS Daily Summary

Daily Weather History Graph

Daily Weather History Graph

Search for Another Location

Airport or City:

Trip Planner

Search our weather history database for the weather conditions in past years. The results will help you decide how hot, cold, wet, or windy it might be!

Date:

Astronomy

Aug. 09, 2013 Rise Set
Actual Time 6:07 AM CDT 7:43 PM CDT
Civil Twilight 5:40 AM CDT 8:10 PM CDT
Nautical Twilight 5:08 AM CDT 8:43 PM CDT
Astronomical Twilight 4:33 AM CDT 9:16 PM CDT
Moon 8:43 AM CDT (8/9) 9:04 PM CDT (8/9)
Length of Visible Light 14h 30m
Length of Day
13h 36m
Waxing Crescent, 8% of the Moon is Illuminated
Aug 9
Waxing Crescent
Aug 14
First Quarter
Aug 20
Full
Aug 28
Last Quarter
Sep 5
New

Hourly Weather History & Observations

Time (CDT) Temp. Heat Index Dew Point Humidity Pressure Visibility Wind Dir Wind Speed Gust Speed Precip Events Conditions
12:56 AM 72.9 °F - 72.9 °F 100% 30.08 in 8.0 mi South 3.5 mph - N/A   Clear
1:56 AM 73.9 °F - 73.9 °F 100% 30.08 in 7.0 mi SSE 8.1 mph - N/A   Clear
2:56 AM 73.9 °F - 73.9 °F 100% 30.08 in 7.0 mi South 6.9 mph - N/A   Clear
3:56 AM 72.9 °F - 72.9 °F 100% 30.07 in 7.0 mi SSE 6.9 mph - N/A   Clear
4:56 AM 72.9 °F - 72.9 °F 100% 30.07 in 6.0 mi SSE 3.5 mph - N/A   Clear
5:56 AM 72.0 °F - 72.0 °F 100% 30.09 in 4.0 mi Calm Calm - N/A   Clear
6:56 AM 72.9 °F - 72.9 °F 100% 30.09 in 7.0 mi South 4.6 mph - N/A   Clear
7:26 AM 73.4 °F - 73.4 °F 100% 30.07 in 7.0 mi Calm Calm - N/A   Partly Cloudy
7:56 AM 73.9 °F - 73.9 °F 100% 30.11 in 7.0 mi South 8.1 mph - N/A   Scattered Clouds
8:04 AM 73.4 °F - 73.4 °F 100% 30.08 in 6.0 mi SSE 8.1 mph - N/A   Mostly Cloudy
8:56 AM 75.9 °F - 73.9 °F 94% 30.13 in 7.0 mi South 5.8 mph - N/A   Overcast
9:32 AM 77.0 °F - 73.4 °F 89% 30.09 in 6.0 mi SSE 6.9 mph - N/A   Overcast
9:56 AM 77.9 °F - 74.8 °F 90% 30.13 in 6.0 mi South 5.8 mph - N/A   Overcast
10:56 AM 79.9 °F - 75.9 °F 88% 30.14 in 5.0 mi Calm Calm - N/A   Overcast
11:27 AM 82.4 °F 89.5 °F 75.2 °F 79% 30.09 in 7.0 mi SSW 8.1 mph - N/A   Mostly Cloudy
11:45 AM 84.2 °F 94.1 °F 77.0 °F 79% 30.09 in 7.0 mi Variable 5.8 mph - N/A   Scattered Clouds
11:56 AM 84.9 °F 95.3 °F 77.0 °F 77% 30.12 in 8.0 mi South 8.1 mph - N/A   Scattered Clouds
12:13 PM 86.0 °F 96.9 °F 77.0 °F 74% 30.08 in 9.0 mi SSW 8.1 mph - N/A   Mostly Cloudy
12:20 PM 86.0 °F 96.9 °F 77.0 °F 74% 30.08 in 10.0 mi South 8.1 mph - N/A   Partly Cloudy
12:56 PM 86.0 °F 96.9 °F 77.0 °F 74% 30.11 in 10.0 mi Variable 4.6 mph - N/A   Scattered Clouds
1:23 PM 87.8 °F 97.6 °F 75.2 °F 66% 30.06 in 10.0 mi Variable 4.6 mph - N/A Thunderstorm Scattered Clouds
1:41 PM 86.0 °F 95.1 °F 75.2 °F 70% 30.07 in 10.0 mi South 5.8 mph - N/A   Mostly Cloudy
1:56 PM 82.9 °F 88.5 °F 72.9 °F 71% 30.11 in 10.0 mi NW 6.9 mph 16.1 mph N/A Thunderstorm Mostly Cloudy
2:13 PM 77.0 °F - 71.6 °F 83% 30.09 in 4.0 mi Calm Calm - 0.03 in Rain , Thunderstorm Light Thunderstorms and Rain
2:16 PM 77.0 °F - 73.4 °F 89% 30.09 in 1.5 mi North 6.9 mph - 0.07 in Rain , Thunderstorm Heavy Thunderstorms and Rain
2:18 PM 75.2 °F - 73.4 °F 94% 30.09 in 0.8 mi North 9.2 mph - 0.12 in Rain , Thunderstorm Heavy Thunderstorms and Rain
2:22 PM 73.4 °F - 71.6 °F 94% 30.09 in 0.2 mi NNW 8.1 mph - 0.20 in Fog , Rain , Thunderstorm Heavy Thunderstorms and Rain
2:38 PM 73.4 °F - 73.4 °F 100% 30.08 in 0.2 mi North 8.1 mph - 0.87 in Fog , Rain , Thunderstorm Heavy Thunderstorms and Rain
2:47 PM 73.4 °F - 73.4 °F 100% 30.07 in 0.5 mi North 5.8 mph - 0.96 in Fog , Rain , Thunderstorm Heavy Thunderstorms and Rain
2:56 PM 73.9 °F - 73.9 °F 100% 30.11 in 1.0 mi Calm Calm - 1.00 in Rain , Thunderstorm Heavy Thunderstorms and Rain
3:02 PM 73.4 °F - 73.4 °F 100% 30.07 in 1.5 mi Calm Calm - 0.01 in Rain , Thunderstorm Light Thunderstorms and Rain
3:06 PM 75.2 °F - 75.2 °F 100% 30.06 in 3.0 mi Calm Calm - 0.01 in Rain , Thunderstorm Heavy Thunderstorms and Rain
3:19 PM 75.2 °F - 75.2 °F 100% 30.05 in 10.0 mi SSE 4.6 mph - 0.01 in Rain Light Rain
3:56 PM 77.0 °F - 73.9 °F 90% 30.10 in 10.0 mi Variable 3.5 mph - 0.01 in   Clear
4:56 PM 77.9 °F - 74.8 °F 90% 30.10 in 10.0 mi Calm Calm - N/A   Clear
5:56 PM 77.0 °F - 73.9 °F 90% 30.09 in 10.0 mi Calm Calm - N/A   Clear
6:56 PM 74.8 °F - 73.9 °F 97% 30.09 in 10.0 mi WNW 3.5 mph - N/A   Clear
7:56 PM 74.8 °F - 72.9 °F 94% 30.11 in 10.0 mi Calm Calm - N/A   Clear
8:56 PM 73.9 °F - 73.9 °F 100% 30.14 in 6.0 mi Calm Calm - N/A   Clear
9:56 PM 73.9 °F - 73.9 °F 100% 30.14 in 8.0 mi South 4.6 mph - N/A   Clear
10:56 PM 73.9 °F - 72.9 °F 96% 30.14 in 10.0 mi Calm Calm - N/A   Clear
11:56 PM 72.9 °F - 72.9 °F 100% 30.14 in 10.0 mi SSE 4.6 mph - N/A   Clear